Change the Weather History Date:

Wednesday, March 5, 2014

  Actual Average Record
Temperature  
Mean Temperature 17 °F -  
Max Temperature 24 °F 34 °F 60 °F (1968)
Min Temperature 10 °F 12 °F -16 °F (2015)
Degree Days  
Heating Degree Days 48    
Moisture  
Dew Point 13 °F    
Average Humidity 80    
Maximum Humidity 86    
Minimum Humidity 73    
Precipitation  
Precipitation 0.00 in - - ()
Sea Level Pressure  
Sea Level Pressure 30.31 in    
Wind  
Wind Speed 8 mph (SE)    
Max Wind Speed 23 mph    
Max Gust Speed 29 mph    
Visibility 10 miles    
Events      
Averages and records for this station are not official NWS values.
T = Trace of Precipitation, MM = Missing Value Source: NWS Daily Summary

Daily Weather History Graph

Daily Weather History Graph

Search for Another Location

Airport or City:

Trip Planner

Search our weather history database for the weather conditions in past years. The results will help you decide how hot, cold, wet, or windy it might be!

Date:

Astronomy

Mar. 05, 2014 Rise Set
Actual Time 6:57 AM CST 6:18 PM CST
Civil Twilight 6:27 AM CST 6:48 PM CST
Nautical Twilight 5:53 AM CST 7:22 PM CST
Astronomical Twilight 5:18 AM CST 7:57 PM CST
Moon 9:08 AM CST (3/5) 11:45 PM CST (3/5)
Length of Visible Light 12h 20m
Length of Day
11h 21m
Waxing Crescent, 23% of the Moon is Illuminated
Mar 5
Waxing Crescent
Mar 8
First Quarter
Mar 16
Full
Mar 23
Last Quarter
Mar 30
New

Hourly Weather History & Observations

Time (CST) Temp. Windchill Dew Point Humidity Pressure Visibility Wind Dir Wind Speed Gust Speed Precip Events Conditions
12:14 AM 15.8 °F 10.2 °F 10.4 °F 79% 30.31 in 10.0 mi ENE 3.5 mph - N/A   Overcast
12:34 AM 15.8 °F 10.2 °F 10.4 °F 79% 30.31 in 10.0 mi ENE 3.5 mph - N/A   Overcast
12:54 AM 15.8 °F - 8.6 °F 73% 30.32 in 10.0 mi Calm Calm - N/A   Overcast
1:14 AM 15.8 °F - 8.6 °F 73% 30.33 in 10.0 mi Calm Calm - N/A   Overcast
1:34 AM 14.0 °F 8.2 °F 8.6 °F 79% 30.33 in 10.0 mi NNW 3.5 mph - N/A   Overcast
1:54 AM 14.0 °F - 10.4 °F 86% 30.33 in 10.0 mi Calm Calm - N/A   Overcast
2:14 AM 14.0 °F - 10.4 °F 86% 30.33 in 10.0 mi Calm Calm - N/A   Overcast
2:34 AM 14.0 °F - 8.6 °F 79% 30.33 in 10.0 mi Calm Calm - N/A   Overcast
2:54 AM 12.2 °F 2.9 °F 8.6 °F 85% 30.32 in 10.0 mi East 5.8 mph - N/A   Scattered Clouds
3:14 AM 12.2 °F 4.3 °F 8.6 °F 85% 30.32 in 10.0 mi East 4.6 mph - N/A   Mostly Cloudy
3:34 AM 12.2 °F 2.9 °F 6.8 °F 79% 30.32 in 10.0 mi East 5.8 mph - N/A   Mostly Cloudy
3:54 AM 10.4 °F 0.8 °F 6.8 °F 85% 30.33 in 10.0 mi East 5.8 mph - N/A   Scattered Clouds
4:14 AM 10.4 °F 4.0 °F 6.8 °F 85% 30.33 in 10.0 mi ESE 3.5 mph - N/A   Mostly Cloudy
4:34 AM 12.2 °F 4.3 °F 8.6 °F 85% 30.34 in 10.0 mi ESE 4.6 mph - N/A   Overcast
4:54 AM 12.2 °F 6.1 °F 8.6 °F 85% 30.35 in 10.0 mi East 3.5 mph - N/A   Overcast
5:14 AM 14.0 °F - 8.6 °F 79% 30.36 in 10.0 mi Calm Calm - N/A   Overcast
5:34 AM 14.0 °F - 8.6 °F 79% 30.37 in 10.0 mi Calm Calm - N/A   Overcast
5:54 AM 14.0 °F - 8.6 °F 79% 30.37 in 10.0 mi Calm Calm - N/A   Overcast
6:14 AM 14.0 °F - 8.6 °F 79% 30.37 in 10.0 mi Calm Calm - N/A   Overcast
6:34 AM 14.0 °F - 8.6 °F 79% 30.38 in 10.0 mi Calm Calm - N/A   Overcast
6:54 AM 14.0 °F 8.2 °F 8.6 °F 79% 30.38 in 10.0 mi East 3.5 mph - N/A   Overcast
7:14 AM 14.0 °F 8.2 °F 8.6 °F 79% 30.39 in 10.0 mi East 3.5 mph - N/A   Overcast
7:34 AM 14.0 °F 6.5 °F 10.4 °F 86% 30.39 in 10.0 mi ESE 4.6 mph - N/A   Overcast
7:54 AM 15.8 °F 6.1 °F 10.4 °F 79% 30.39 in 10.0 mi ESE 6.9 mph - N/A   Overcast
8:14 AM 15.8 °F 4.2 °F 10.4 °F 79% 30.39 in 10.0 mi ESE 9.2 mph - N/A   Overcast
8:34 AM 15.8 °F 4.2 °F 10.4 °F 79% 30.39 in 10.0 mi ESE 9.2 mph - N/A   Overcast
8:54 AM 15.8 °F 4.2 °F 10.4 °F 79% 30.39 in 10.0 mi SE 9.2 mph - N/A   Mostly Cloudy
9:14 AM 17.6 °F 6.4 °F 10.4 °F 73% 30.39 in 10.0 mi SE 9.2 mph - N/A   Overcast
9:34 AM 17.6 °F 5.7 °F 10.4 °F 73% 30.38 in 10.0 mi SE 10.4 mph - N/A   Overcast
9:54 AM 17.6 °F 6.4 °F 12.2 °F 79% 30.38 in 10.0 mi SE 9.2 mph - N/A   Overcast
10:14 AM 19.4 °F 7.2 °F 12.2 °F 74% 30.38 in 10.0 mi SSE 11.5 mph - N/A   Overcast
10:34 AM 19.4 °F 6.0 °F 12.2 °F 74% 30.38 in 10.0 mi SSE 13.8 mph - N/A   Mostly Cloudy
10:54 AM 19.4 °F 5.0 °F 14.0 °F 80% 30.37 in 10.0 mi SE 16.1 mph - N/A   Mostly Cloudy
11:14 AM 21.2 °F 8.9 °F 15.8 °F 80% 30.37 in 10.0 mi SSE 12.7 mph - N/A   Mostly Cloudy
11:34 AM 21.2 °F 6.8 °F 15.8 °F 80% 30.36 in 10.0 mi SE 17.3 mph 20.7 mph N/A   Mostly Cloudy
11:54 AM 21.2 °F 8.3 °F 15.8 °F 80% 30.37 in 10.0 mi SE 13.8 mph - N/A   Mostly Cloudy
12:14 PM 21.2 °F 9.5 °F 15.8 °F 80% 30.38 in 10.0 mi SSE 11.5 mph - N/A   Scattered Clouds
12:34 PM 21.2 °F 8.9 °F 15.8 °F 80% 30.37 in 10.0 mi South 12.7 mph 16.1 mph N/A   Scattered Clouds
12:54 PM 23.0 °F 11.1 °F 17.6 °F 80% 30.36 in 10.0 mi SSE 12.7 mph - N/A   Mostly Cloudy
1:14 PM 23.0 °F 10.6 °F 17.6 °F 80% 30.34 in 10.0 mi SSE 13.8 mph 18.4 mph N/A   Mostly Cloudy
1:34 PM 24.8 °F 12.9 °F 17.6 °F 74% 30.34 in 10.0 mi SSE 13.8 mph - N/A   Mostly Cloudy
1:54 PM 23.0 °F 10.1 °F 17.6 °F 80% 30.33 in 10.0 mi SE 15.0 mph 20.7 mph N/A   Scattered Clouds
2:14 PM 24.8 °F 11.9 °F 17.6 °F 74% 30.33 in 10.0 mi South 16.1 mph 23.0 mph N/A   Scattered Clouds
2:34 PM 24.8 °F 12.4 °F 17.6 °F 74% 30.32 in 10.0 mi SSE 15.0 mph 21.9 mph N/A   Scattered Clouds
2:54 PM 24.8 °F 11.1 °F 17.6 °F 74% 30.31 in 10.0 mi SSE 18.4 mph 24.2 mph N/A   Scattered Clouds
3:14 PM 24.8 °F 11.5 °F 17.6 °F 74% 30.31 in 10.0 mi SSE 17.3 mph - N/A   Mostly Cloudy
3:34 PM 24.8 °F 10.7 °F 17.6 °F 74% 30.29 in 10.0 mi SE 19.6 mph - N/A   Mostly Cloudy
3:54 PM 24.8 °F 11.1 °F 17.6 °F 74% 30.28 in 10.0 mi SSE 18.4 mph 25.3 mph N/A   Overcast
4:14 PM 23.0 °F 7.6 °F 17.6 °F 80% 30.27 in 10.0 mi SSE 21.9 mph 28.8 mph N/A   Overcast
4:34 PM 23.0 °F 7.2 °F 17.6 °F 80% 30.26 in 10.0 mi SE 23.0 mph 28.8 mph N/A   Overcast
4:54 PM 23.0 °F 7.6 °F 17.6 °F 80% 30.26 in 10.0 mi SE 21.9 mph 27.6 mph N/A   Overcast
5:14 PM 23.0 °F 7.2 °F 17.6 °F 80% 30.25 in 10.0 mi SE 23.0 mph - N/A   Scattered Clouds
5:34 PM 21.2 °F 5.2 °F 15.8 °F 80% 30.24 in 10.0 mi SE 21.9 mph - N/A   Clear
5:54 PM 21.2 °F 7.3 °F 15.8 °F 80% 30.27 in 10.0 mi SE 16.1 mph - N/A   Clear
6:14 PM 19.4 °F 4.1 °F 15.8 °F 86% 30.26 in 10.0 mi SE 18.4 mph - N/A   Clear
6:34 PM 19.4 °F 3.2 °F 15.8 °F 86% 30.25 in 10.0 mi SE 20.7 mph 25.3 mph N/A   Clear
6:54 PM 17.6 °F 2.2 °F 14.0 °F 86% 30.26 in 10.0 mi SSE 17.3 mph - N/A   Clear
7:14 PM 17.6 °F 2.2 °F 14.0 °F 86% 30.26 in 10.0 mi SE 17.3 mph - N/A   Clear
7:34 PM 17.6 °F 1.7 °F 14.0 °F 86% 30.24 in 10.0 mi SE 18.4 mph - N/A   Clear
7:54 PM 17.6 °F 0.5 °F 14.0 °F 86% 30.23 in 10.0 mi SE 21.9 mph 26.5 mph N/A   Clear
8:14 PM 17.6 °F 0.9 °F 14.0 °F 86% 30.23 in 10.0 mi SE 20.7 mph 25.3 mph N/A   Clear
8:34 PM 17.6 °F 0.5 °F 14.0 °F 86% 30.22 in 10.0 mi SE 21.9 mph 25.3 mph N/A   Clear
8:54 PM 17.6 °F 0.9 °F 12.2 °F 79% 30.22 in 10.0 mi SE 20.7 mph 26.5 mph N/A   Clear
9:14 PM 17.6 °F 0.1 °F 12.2 °F 79% 30.20 in 10.0 mi SE 23.0 mph 26.5 mph N/A   Scattered Clouds
9:34 PM 17.6 °F 0.9 °F 12.2 °F 79% 30.19 in 10.0 mi SE 20.7 mph 27.6 mph N/A   Scattered Clouds
9:54 PM 17.6 °F 1.3 °F 14.0 °F 86% 30.20 in 10.0 mi SSE 19.6 mph 27.6 mph N/A   Clear
10:14 PM 17.6 °F 0.9 °F 14.0 °F 86% 30.20 in 10.0 mi SSE 20.7 mph 25.3 mph N/A   Scattered Clouds
10:34 PM 17.6 °F 1.3 °F 14.0 °F 86% 30.19 in 10.0 mi SSE 19.6 mph 24.2 mph N/A   Mostly Cloudy
10:54 PM 17.6 °F 0.5 °F 14.0 °F 86% 30.17 in 10.0 mi SE 21.9 mph 28.8 mph N/A   Clear
11:14 PM 17.6 °F 1.7 °F 14.0 °F 86% 30.17 in 10.0 mi SE 18.4 mph - N/A   Clear
11:34 PM 15.8 °F -0.6 °F 12.2 °F 86% 30.16 in 10.0 mi SE 18.4 mph 25.3 mph N/A   Clear
11:54 PM 15.8 °F -1.5 °F 12.2 °F 86% 30.15 in 10.0 mi SE 20.7 mph - N/A   Clear